Weather History for Chadron, NE

Change the Weather History Date:

Wednesday, April 17, 2013

  Actual Average Record
Temperature  
Mean Temperature 26 °F 45 °F  
Max Temperature 28 °F 61 °F 87 °F (1948)
Min Temperature 24 °F 30 °F 13 °F (1956)
Degree Days  
Heating Degree Days 39 20  
Month to date heating degree days 500 381  
Since 1 July heating degree days 6269 6538  
Cooling Degree Days 0 0  
Month to date cooling degree days 0 0  
Year to date cooling degree days 0 0  
Moisture  
Dew Point 24 °F    
Average Humidity 91    
Maximum Humidity 100    
Minimum Humidity 81    
Precipitation  
Precipitation 0.13 in 0.06 in 0.33 in (2009)
Month to date precipitation 0.28 0.95  
Year to date precipitation 1.82 3.15  
Sea Level Pressure  
Sea Level Pressure 30.18 in    
Wind  
Wind Speed 13 mph (NNE)    
Max Wind Speed 18 mph    
Max Gust Speed 22 mph    
Visibility 2 miles    
Events Fog , Snow    
T = Trace of Precipitation, MM = Missing Value Source: NWS Daily Summary

Daily Weather History Graph

Daily Weather History Graph

Search for Another Location

Airport:

Trip Planner

Search our weather history database for the weather conditions in past years. The results will help you decide how hot, cold, wet, or windy it might be!

Date:

Astronomy

Apr. 17, 2013 Rise Set
Actual Time 6:07 AM MDT 7:37 PM MDT
Civil Twilight 5:37 AM MDT 8:07 PM MDT
Nautical Twilight 5:01 AM MDT 8:42 PM MDT
Astronomical Twilight 4:23 AM MDT 9:21 PM MDT
Moon 11:20 AM MDT (4/17) 1:19 AM MDT (4/17)
Length of Visible Light 14h 29m
Length of Day
13h 30m
Waxing Crescent, 43% of the Moon is Illuminated
Apr 17
Waxing Crescent
Apr 18
First Quarter
Apr 25
Full
May 2
Last Quarter
May 9
New

Hourly Weather History & Observations

Time (MDT) Temp. Windchill Dew Point Humidity Pressure Visibility Wind Dir Wind Speed Gust Speed Precip Events Conditions
12:07 AM 28.4 °F 18.5 °F 26.6 °F 93% 30.17 in 1.0 mi NE 11.5 mph - 0.00 in Snow Light Snow
12:16 AM 28.4 °F 18.5 °F 26.6 °F 93% 30.17 in 0.8 mi NE 11.5 mph - 0.00 in Snow Light Snow
12:51 AM 28.4 °F 19.1 °F 26.6 °F 93% 30.17 in 0.8 mi NNE 10.4 mph - 0.00 in Snow Light Snow
12:53 AM 28.0 °F 18.6 °F 26.1 °F 92% 30.30 in 0.8 mi NNE 10.4 mph - 0.00 in Snow Light Snow
1:07 AM 26.6 °F 16.2 °F 26.6 °F 100% 30.16 in 1.0 mi NE 11.5 mph - 0.00 in Snow Light Snow
1:53 AM 27.0 °F 16.7 °F 26.1 °F 96% 30.28 in 0.5 mi NE 11.5 mph - 0.00 in Fog , Snow Snow
2:08 AM 26.6 °F 15.2 °F 26.6 °F 100% 30.14 in 1.0 mi NE 13.8 mph - 0.00 in Snow Light Snow
2:10 AM 26.6 °F 16.2 °F 26.6 °F 100% 30.14 in 1.0 mi NE 11.5 mph - 0.00 in Snow Light Snow
2:19 AM 26.6 °F 15.7 °F 26.6 °F 100% 30.14 in 0.8 mi NE 12.7 mph - 0.00 in Snow Light Snow
2:27 AM 26.6 °F 15.7 °F 26.6 °F 100% 30.14 in 0.8 mi NE 12.7 mph - 0.00 in Snow Light Snow
2:35 AM 26.6 °F 15.7 °F 26.6 °F 100% 30.14 in 1.0 mi NE 12.7 mph - 0.00 in Snow Light Snow
2:53 AM 27.0 °F 16.1 °F 26.1 °F 96% 30.26 in 0.8 mi NNE 12.7 mph - 0.00 in Snow Light Snow
3:01 AM 26.6 °F 16.2 °F 26.6 °F 100% 30.14 in 1.0 mi NNE 11.5 mph - 0.00 in Snow Light Snow
3:10 AM 26.6 °F 16.2 °F 26.6 °F 100% 30.13 in 1.2 mi NE 11.5 mph - 0.00 in Snow Light Snow
3:53 AM 27.0 °F 17.3 °F 26.1 °F 96% 30.25 in 1.0 mi NE 10.4 mph - 0.00 in Snow Light Snow
4:18 AM 26.6 °F 16.2 °F 24.8 °F 93% 30.12 in 1.0 mi NE 11.5 mph - 0.00 in Snow Light Snow
4:22 AM 26.6 °F 16.2 °F 24.8 °F 93% 30.12 in 1.2 mi NE 11.5 mph - 0.00 in Snow Light Snow
4:53 AM 26.1 °F 15.6 °F 24.1 °F 92% 30.25 in 1.2 mi NE 11.5 mph - 0.00 in Snow Light Snow
5:31 AM 26.6 °F 15.2 °F 23.0 °F 86% 30.12 in 2.0 mi NE 13.8 mph - 0.00 in Snow Light Snow
5:53 AM 26.1 °F 15.0 °F 24.1 °F 92% 30.25 in 1.8 mi NE 12.7 mph - 0.00 in Snow Light Snow
6:07 AM 26.6 °F 15.7 °F 23.0 °F 86% 30.12 in 1.5 mi NE 12.7 mph - 0.00 in Snow Light Snow
6:15 AM 26.6 °F 16.8 °F 24.8 °F 93% 30.13 in 1.2 mi NE 10.4 mph - 0.00 in Snow Light Snow
6:27 AM 26.6 °F 16.2 °F 24.8 °F 93% 30.13 in 0.8 mi NE 11.5 mph - 0.00 in Snow Light Snow
6:49 AM 26.6 °F 18.2 °F 24.8 °F 93% 30.13 in 0.5 mi NNE 8.1 mph - 0.00 in Fog , Snow Snow
6:53 AM 25.0 °F 15.5 °F 24.1 °F 96% 30.26 in 0.5 mi NNE 9.2 mph - 0.00 in Fog , Snow Snow
7:29 AM 24.8 °F 15.3 °F 23.0 °F 93% 30.14 in 1.0 mi NNE 9.2 mph - 0.00 in Snow Light Snow
8:53 AM 26.1 °F 16.2 °F 23.0 °F 88% 30.28 in 1.0 mi NE 10.4 mph - 0.00 in Snow Light Snow
9:01 AM 26.6 °F 17.5 °F 23.0 °F 86% 30.14 in 0.8 mi NE 9.2 mph - 0.00 in Snow Light Snow
9:12 AM 26.6 °F 16.8 °F 24.8 °F 93% 30.13 in 0.5 mi NE 10.4 mph - 0.00 in Fog , Snow Light Snow
9:53 AM 27.0 °F 16.1 °F 23.0 °F 85% 30.25 in 0.8 mi NNE 12.7 mph - 0.00 in Snow Light Snow
10:08 AM 26.6 °F 15.7 °F 23.0 °F 86% 30.12 in 1.0 mi NNE 12.7 mph - 0.00 in Snow Light Snow
10:27 AM 26.6 °F 14.7 °F 23.0 °F 86% 30.12 in 2.5 mi NNE 15.0 mph - 0.00 in Snow Light Snow
10:48 AM 26.6 °F 13.8 °F 23.0 °F 86% 30.11 in 1.8 mi North 17.3 mph - 0.00 in Snow Light Snow
10:53 AM 27.0 °F 14.7 °F 23.0 °F 85% 30.24 in 1.8 mi NNE 16.1 mph - 0.00 in Snow Light Snow
11:07 AM 26.6 °F 13.8 °F 23.0 °F 86% 30.12 in 2.0 mi NNE 17.3 mph - 0.00 in Snow Light Snow
11:34 AM 26.6 °F 15.2 °F 23.0 °F 86% 30.12 in 2.0 mi NNE 13.8 mph - 0.02 in Snow Light Snow
11:43 AM 26.6 °F 14.7 °F 21.2 °F 80% 30.11 in 2.0 mi NNE 15.0 mph - 0.03 in Snow Light Snow
11:50 AM 26.6 °F 15.7 °F 23.0 °F 86% 30.11 in 2.0 mi NNE 12.7 mph - 0.03 in Snow Light Snow
11:53 AM 27.0 °F 14.7 °F 23.0 °F 85% 30.24 in 2.0 mi NNE 16.1 mph - 0.04 in Snow Light Snow
11:57 AM 26.6 °F 14.7 °F 23.0 °F 86% 30.12 in 1.8 mi North 15.0 mph - 0.00 in Snow Light Snow
12:06 PM 26.6 °F 14.7 °F 21.2 °F 80% 30.12 in 2.0 mi NNE 15.0 mph - 0.01 in Snow Light Snow
12:14 PM 26.6 °F 14.7 °F 21.2 °F 80% 30.12 in 1.8 mi North 15.0 mph - 0.02 in Snow Light Snow
12:41 PM 26.6 °F 14.3 °F 21.2 °F 80% 30.12 in 0.5 mi North 16.1 mph - 0.03 in Fog , Snow Light Snow
12:53 PM 26.1 °F 14.0 °F 21.9 °F 84% 30.25 in 0.5 mi North 15.0 mph - 0.03 in Fog , Snow Snow
1:02 PM 26.6 °F 14.3 °F 21.2 °F 80% 30.12 in 0.5 mi NNE 16.1 mph - 0.01 in Fog , Snow Light Snow
1:53 PM 27.0 °F 16.1 °F 23.0 °F 85% 30.25 in 0.5 mi NNE 12.7 mph - 0.03 in Fog , Snow Snow
2:53 PM 27.0 °F 16.1 °F 23.0 °F 85% 30.27 in 0.5 mi NNE 12.7 mph - 0.01 in Fog , Snow Light Snow
3:10 PM 26.6 °F 15.7 °F 23.0 °F 86% 30.14 in 0.5 mi NNE 12.7 mph - 0.01 in Fog , Snow Light Snow
3:21 PM 26.6 °F 15.2 °F 23.0 °F 86% 30.14 in 0.5 mi NNE 13.8 mph - 0.01 in Fog , Snow Light Snow
3:39 PM 26.6 °F 15.2 °F 24.8 °F 93% 30.13 in 0.2 mi NNE 13.8 mph - 0.01 in Fog , Snow Snow
3:44 PM 26.6 °F 15.2 °F 24.8 °F 93% 30.13 in 0.2 mi NNE 13.8 mph - 0.01 in Fog , Snow Snow
3:53 PM 27.0 °F 14.7 °F 24.1 °F 89% 30.25 in 0.2 mi NNE 16.1 mph - 0.01 in Fog , Snow Light Snow
4:01 PM 26.6 °F 14.7 °F 23.0 °F 86% 30.12 in 0.5 mi NNE 15.0 mph - 0.00 in Fog , Snow Light Snow
4:08 PM 26.6 °F 13.8 °F 23.0 °F 86% 30.13 in 0.8 mi North 17.3 mph - 0.00 in Snow Light Snow
4:41 PM 26.6 °F 15.2 °F 24.8 °F 93% 30.13 in 0.8 mi North 13.8 mph - 0.01 in Snow Light Snow
4:50 PM 26.6 °F 15.2 °F 24.8 °F 93% 30.13 in 0.8 mi North 13.8 mph - 0.01 in Snow Light Snow
4:53 PM 27.0 °F 16.1 °F 24.1 °F 89% 30.27 in 0.8 mi NNE 12.7 mph - 0.01 in Snow Light Snow
5:10 PM 26.6 °F 13.8 °F 23.0 °F 86% 30.14 in 0.8 mi NNE 17.3 mph 21.9 mph 0.00 in Snow Light Snow
5:20 PM 26.6 °F 14.7 °F 24.8 °F 93% 30.15 in 1.5 mi NNE 15.0 mph - 0.00 in Snow Light Snow
5:25 PM 28.4 °F 19.1 °F 24.8 °F 86% 30.14 in 2.0 mi NNE 10.4 mph - 0.00 in   Overcast
5:32 PM 28.4 °F 18.0 °F 24.8 °F 86% 30.15 in 3.0 mi NNE 12.7 mph - 0.00 in   Overcast
5:36 PM 28.4 °F 19.1 °F 24.8 °F 86% 30.16 in 4.0 mi NNE 10.4 mph - 0.00 in   Overcast
5:45 PM 28.4 °F 18.5 °F 24.8 °F 86% 30.15 in 4.0 mi NNE 11.5 mph - 0.00 in   Overcast
5:53 PM 27.0 °F 13.9 °F 24.1 °F 89% 30.27 in 2.5 mi North 18.4 mph 21.9 mph 0.00 in   Overcast
5:56 PM 26.6 °F 15.2 °F 23.0 °F 86% 30.14 in 3.0 mi NNE 13.8 mph - 0.00 in   Overcast
6:10 PM 26.6 °F 15.2 °F 23.0 °F 86% 30.15 in 6.0 mi NNE 13.8 mph - 0.00 in   Overcast
6:29 PM 26.6 °F 15.7 °F 23.0 °F 86% 30.16 in 2.0 mi NNE 12.7 mph - 0.00 in Snow Light Snow
6:48 PM 26.6 °F 17.5 °F 23.0 °F 86% 30.16 in 4.0 mi NNE 9.2 mph - 0.00 in   Overcast
6:53 PM 27.0 °F 16.7 °F 23.0 °F 85% 30.29 in 3.0 mi NNE 11.5 mph - 0.00 in   Overcast
7:00 PM 26.6 °F 16.8 °F 23.0 °F 86% 30.15 in 1.8 mi North 10.4 mph - 0.00 in Snow Light Snow
7:40 PM 26.6 °F 16.8 °F 24.8 °F 93% 30.15 in 0.5 mi NNE 10.4 mph - 0.00 in Fog , Snow Light Snow
7:53 PM 26.1 °F 17.6 °F 24.1 °F 92% 30.31 in 1.0 mi North 8.1 mph - 0.00 in Snow Light Snow
8:20 PM 24.8 °F 14.6 °F 23.0 °F 93% 30.18 in 2.0 mi North 10.4 mph - 0.00 in Snow Light Snow
8:53 PM 25.0 °F 14.8 °F 23.0 °F 92% 30.32 in 1.8 mi NNE 10.4 mph - 0.00 in Snow Light Snow
9:05 PM 24.8 °F 16.1 °F 23.0 °F 93% 30.19 in 2.5 mi NNE 8.1 mph - 0.00 in Snow Light Snow
9:13 PM 24.8 °F 15.3 °F 23.0 °F 93% 30.18 in 4.0 mi NNE 9.2 mph - 0.00 in Snow Light Snow
9:53 PM 24.1 °F 16.0 °F 21.9 °F 91% 30.32 in 6.0 mi North 6.9 mph - 0.00 in   Overcast
10:53 PM 25.0 °F 13.6 °F 21.9 °F 88% 30.30 in 9.0 mi North 12.7 mph - 0.00 in   Overcast
11:53 PM 25.0 °F 13.1 °F 21.9 °F 88% 30.29 in 6.0 mi NNE 13.8 mph - 0.00 in   Overcast